This is the latest recevied weather packets stored in our database for station/object VR2HK-13. If no packets are shown the sender has not sent any weather packets the latest 1 day(s).
| Time | Temp. | Humidity | Pressure | Rain* | Wind** | Luminosity | Snow |
|---|---|---|---|---|---|---|---|
| 1778012102 | 21.11° C | 85% | 1012.3 hPa | 0 mm | 2.68 m/s, 331° | - | - |
| 1778011942 | 21.11° C | 85% | 1012.4 hPa | 0 mm | 0.89 m/s, 192° | - | - |
| 1778011801 | 21.67° C | 85% | 1012.4 hPa | 0 mm | 2.24 m/s, 251° | - | - |
| 1778011632 | 21.67° C | 85% | 1012.4 hPa | 0 mm | 1.34 m/s, 333° | - | - |
| 1778011501 | 21.67° C | 85% | 1012.3 hPa | 0 mm | 1.34 m/s, 196° | - | - |
| 1778011323 | 21.11° C | 85% | 1012.3 hPa | 0 mm | 1.79 m/s, 280° | - | - |
| 1778011202 | 21.11° C | 85% | 1012.4 hPa | 0 mm | 2.68 m/s, 221° | - | - |
| 1778011012 | 21.11° C | 85% | 1012.3 hPa | 0 mm | 2.24 m/s, 238° | - | - |
| 1778010901 | 21.11° C | 85% | 1012.3 hPa | 0 mm | 0.89 m/s, 274° | - | - |
| 1778010702 | 21.11° C | 85% | 1012.3 hPa | 0 mm | 1.79 m/s, 174° | - | - |
| 1778010601 | 21.11° C | 85% | 1012.4 hPa | 0 mm | 2.24 m/s, 113° | - | - |
| 1778010393 | 21.11° C | 86% | 1012.4 hPa | 0 mm | 1.79 m/s, 199° | - | - |
| 1778010301 | 21.11° C | 86% | 1012.4 hPa | 0 mm | 1.34 m/s, 219° | - | - |
| 1778010083 | 21.11° C | 86% | 1012.4 hPa | 0 mm | 1.34 m/s, 281° | - | - |
| 1778010001 | 21.11° C | 85% | 1012.4 hPa | 0 mm | 1.79 m/s, 34° | - | - |
| 1778009772 | 21.11° C | 86% | 1012.3 hPa | 0 mm | 3.13 m/s, 244° | - | - |
| 1778009701 | 21.11° C | 86% | 1012.3 hPa | 0 mm | 2.24 m/s, 238° | - | - |
| 1778009462 | 21.11° C | 86% | 1012.3 hPa | 0 mm | 1.79 m/s, 35° | - | - |
| 1778009401 | 21.11° C | 86% | 1012.4 hPa | 0 mm | 1.34 m/s, 360° | - | - |
| 1778009153 | 21.11° C | 86% | 1012.3 hPa | 0 mm | 0.45 m/s, 350° | - | - |
| 1778009101 | 21.11° C | 86% | 1012.3 hPa | 0 mm | 1.34 m/s, 255° | - | - |
| 1778008842 | 21.11° C | 85% | 1012.3 hPa | 0 mm | 0.89 m/s, 236° | - | - |
| 1778008801 | 21.11° C | 85% | 1012.3 hPa | 0 mm | 1.34 m/s, 241° | - | - |
| 1778008532 | 21.11° C | 86% | 1012.4 hPa | 0 mm | 0.89 m/s, 238° | - | - |
| 1778008501 | 21.11° C | 86% | 1012.3 hPa | 0 mm | 0.89 m/s, 225° | - | - |
* Rain latest hour (hover to see other rain measurements)
** Current wind speed in m/s (hover to see current wind gust speed)